Weather Roundup
Issued by NWS Springfield, MO

Home | Current Version | Previous Version | Text Only | Print | Product List | Glossary On
Versions: 1 2 3 4 5 6 7 8 9 10 11 12 13 14 15 16 17 18 19 20 21 22 23 24 25 26 27 28 29 30 31 32 33 34 35 36 37 38 39 40 41 42 43 44 45 46 47 48 49 50
000
NZUS99 KSGF 110359
HRRSGF

HOURLY WEATHER
NATIONAL WEATHER SERVICE SPRINGFIELD MO
1100 PM CDT THU JUL 10 2014

......SGF CWA......

CITY           SKY/WX    TMP DP  RH WIND       PRES   REMARKS
SPRINGFIELD    CLEAR     69  64  84 S6        30.11R
JOPLIN         CLEAR     70  67  90 SE6       30.08R
WEST PLAINS    MOCLDY    69  66  90 CALM      30.15R
ROLLA          CLEAR     67  62  84 E6        30.12R
OSAGE BEACH      N/A     70  63  78 E3        30.11R VSB<1/4
BRANSON        MOCLDY    70  68  94 SE6       30.13S

......SURROUNDING SGF CWA......

CITY           SKY/WX    TMP DP  RH WIND       PRES   REMARKS
CHANUTE        CLEAR     72  66  81 SE8       30.05R
PARSONS        CLEAR     72  67  84 S3        30.06R
COFFEYVILLE    PTCLDY    72  67  84 SE7       30.05R
EMPORIA        CLEAR     72  66  81 SE10      30.03R
SILOAM SPRINGS PTCLDY    70  63  78 E6        30.11R
HARRISON AR    PTCLDY    69  64  84 S8        30.13R
NEAR YELLVILLE PTCLDY    72  64  78 CALM      30.12S

......KANSAS AND MISSOURI......

CITY           SKY/WX    TMP DP  RH WIND       PRES   REMARKS
KANSAS CTY INT PTCLDY    74  65  73 SE9       30.07R
DOWNTOWN KC    CLEAR     76  66  71 SE8       30.06R
COLUMBIA       CLEAR     69  61  75 SE7       30.12R
SEDALIA        CLEAR     70  65  84 SE7       30.11R
ST JOSEPH      CLEAR     73  66  78 SE9       30.06R
ST LOUIS       PTCLDY    73  57  57 E8        30.14R
SPIRIT OF STL  PTCLDY    65  61  87 CALM      30.12R
KIRKSVILLE     PTCLDY    67  60  78 SE7       30.13R
WICHITA        PTCLDY    73  66  78 SE16      30.00R
TOPEKA         CLEAR     74  66  76 SE8       30.04R
OLATHE         CLEAR     71  64  78 SE9       30.06R

......TENNESSEE......

CITY           SKY/WX    TMP DP  RH WIND       PRES   REMARKS
MEMPHIS        CLOUDY    80  64  58 E5        30.10R
NASHVILLE      MOCLDY    77  64  64 N5        30.13R

......ARKANSAS.......

CITY           SKY/WX    TMP DP  RH WIND       PRES   REMARKS
FAYETTEVILLE   MOCLDY    68  68 100 E5        30.10R
FT SMITH       MOCLDY    71  69  93 E8        30.07S
LITTLE ROCK    CLOUDY    73  68  84 CALM      30.11R

......OKLAHOMA.......

CITY           SKY/WX    TMP DP  RH WIND       PRES   REMARKS
TULSA          MOCLDY    70  38  31 SE10      30.02R
PONCA CITY     CLEAR     73  67  81 SE12      30.00R
MCALESTER      PTCLDY    72  68  87 SE5       30.04R
OKLAHOMA CITY  PTCLDY    77  68  73 SE8       30.00R

......IOWA............

CITY           SKY/WX    TMP DP  RH WIND       PRES   REMARKS
DES MOINES     PTCLDY    71  60  68 SE12      30.06S
QUAD CITIES    MOCLDY    67  60  78 S7        30.13S

......ILLINOIS........

CITY           SKY/WX    TMP DP  RH WIND       PRES   REMARKS
QUINCY         PTCLDY    67  58  72 SE7       30.14R
CHICAGO        PTCLDY    68  47  46 SE6       30.17S



USA.gov is the U.S. government's official web portal to all federal, state and local government web resources and services.